Valdez, AK

4:40 AM AKDT on September 29, 2016 (GMT -0800)
Valdez

Weather History for PAVD - January, 2013

Change the Weather History Date:

Saturday, January 5, 2013

  Actual Average Record
Temperature  
Mean Temperature 30 °F -  
Max Temperature 33 °F 26 °F 40 °F (1981)
Min Temperature 28 °F 15 °F -12 °F (1966)
Degree Days  
Heating Degree Days 34    
Moisture  
Dew Point 29 °F    
Average Humidity 92    
Maximum Humidity 100    
Minimum Humidity 81    
Precipitation  
Precipitation 0.05 in - - ()
Sea Level Pressure  
Sea Level Pressure 29.57 in    
Wind  
Wind Speed 0 mph (North)    
Max Wind Speed 0 mph    
Max Gust Speed -    
Visibility 6 miles    
Events      
Averages and records for this station are not official NWS values.
T = Trace of Precipitation, MM = Missing Value Source: NWS Daily Summary

Daily Weather History Graph

Daily Weather History Graph

Search for Another Location

Airport or City:

Trip Planner

Search our weather history database for the weather conditions in past years. The results will help you decide how hot, cold, wet, or windy it might be!

Date:

Astronomy

Jan. 05, 2013 Rise Set
Actual Time 9:54 AM AKST 3:46 PM AKST
Civil Twilight 8:55 AM AKST 4:46 PM AKST
Nautical Twilight 7:57 AM AKST 5:44 PM AKST
Astronomical Twilight 7:04 AM AKST 6:37 PM AKST
Moon 2:08 AM AKST (1/5) 11:38 AM AKST (1/5)
Length of Visible Light 7h 50m
Length of Day
5h 52m
Last Quarter, 42% of the Moon is Illuminated
Jan 5
Last Quarter
Jan 11
New
Jan 18
First Quarter
Jan 26
Full
Feb 3
Last Quarter

Hourly Weather History & Observations

Time (AKST) Temp. Dew Point Humidity Pressure Visibility Wind Dir Wind Speed Gust Speed Precip Events Conditions
12:16 AM 30.2 °F 28.4 °F 93% 29.84 in 0.5 mi Calm Calm - N/A   Overcast
12:36 AM 28.4 °F 28.4 °F 100% 29.83 in 0.5 mi Calm Calm - N/A   Overcast
1:16 AM 28.4 °F 28.4 °F 100% 29.82 in 0.8 mi Calm Calm - N/A   Overcast
1:36 AM 28.4 °F 26.6 °F 93% 29.81 in 10.0 mi Calm Calm - N/A   Overcast
1:56 AM 28.4 °F 28.4 °F 100% 29.80 in 10.0 mi Calm Calm - N/A   Overcast
2:16 AM 30.2 °F 28.4 °F 93% 29.79 in 9.0 mi Calm Calm - N/A   Overcast
2:36 AM 28.4 °F 26.6 °F 93% 29.79 in 10.0 mi Calm Calm - N/A   Overcast
3:16 AM 28.4 °F 26.6 °F 93% 29.76 in 8.0 mi Calm Calm - N/A   Overcast
3:36 AM 28.4 °F 26.6 °F 93% 29.75 in 10.0 mi Calm Calm - N/A   Overcast
4:16 AM 28.4 °F 28.4 °F 100% 29.72 in 10.0 mi Calm Calm - N/A   Overcast
4:36 AM 28.4 °F 26.6 °F 93% 29.72 in 10.0 mi Calm Calm - N/A   Overcast
4:56 AM 28.4 °F 26.6 °F 93% 29.71 in 1.2 mi Calm Calm - N/A   Overcast
5:36 AM 28.4 °F 26.6 °F 93% 29.69 in 8.0 mi Calm Calm - N/A   Overcast
5:56 AM 28.4 °F 26.6 °F 93% 29.68 in 5.0 mi Calm Calm - N/A   Overcast
6:16 AM 28.4 °F 26.6 °F 93% 29.66 in 5.0 mi Calm Calm - N/A   Overcast
6:56 AM 28.4 °F 24.8 °F 86% 29.65 in 8.0 mi Calm Calm - N/A   Overcast
7:16 AM 28.4 °F 24.8 °F 86% 29.64 in 8.0 mi Calm Calm - N/A   Overcast
7:36 AM 28.4 °F 26.6 °F 93% 29.63 in 8.0 mi Calm Calm - N/A   Overcast
7:56 AM 28.4 °F 28.4 °F 100% 29.62 in 8.0 mi Calm Calm - N/A   Overcast
8:16 AM 28.4 °F 26.6 °F 93% 29.62 in 8.0 mi Calm Calm - N/A   Overcast
8:36 AM 32.0 °F 30.2 °F 93% 29.61 in 8.0 mi Calm Calm - N/A   Overcast
8:56 AM 30.2 °F 28.4 °F 93% 29.61 in 10.0 mi Calm Calm - N/A   Overcast
9:16 AM 30.2 °F 28.4 °F 93% 29.60 in 10.0 mi Calm Calm - N/A   Overcast
9:36 AM 30.2 °F 26.6 °F 86% 29.60 in 10.0 mi Calm Calm - N/A   Overcast
9:56 AM 30.2 °F 26.6 °F 86% 29.59 in 9.0 mi Calm Calm - N/A   Overcast
10:36 AM 30.2 °F 30.2 °F 100% 29.59 in 9.0 mi Calm Calm - N/A   Overcast
10:56 AM 30.2 °F 26.6 °F 86% 29.58 in 8.0 mi Calm Calm - N/A   Overcast
11:16 AM 30.2 °F 28.4 °F 93% 29.57 in 8.0 mi Calm Calm - N/A   Overcast
11:36 AM 32.0 °F 30.2 °F 93% 29.57 in 8.0 mi Calm Calm - N/A   Overcast
11:56 AM 32.0 °F 30.2 °F 93% 29.56 in 5.0 mi Calm Calm - N/A   Overcast
12:16 PM 30.2 °F 28.4 °F 93% 29.55 in 5.0 mi Calm Calm - N/A   Overcast
12:36 PM 30.2 °F 28.4 °F 93% 29.55 in 5.0 mi Calm Calm - N/A   Overcast
12:56 PM 32.0 °F 28.4 °F 87% 29.54 in 6.0 mi Calm Calm - N/A   Overcast
1:56 PM 32.0 °F 30.2 °F 93% 29.52 in 8.0 mi Calm Calm - N/A   Overcast
2:36 PM 32.0 °F 28.4 °F 87% 29.51 in 8.0 mi Calm Calm - N/A   Overcast
2:56 PM 32.0 °F 30.2 °F 93% 29.51 in 5.0 mi Calm Calm - N/A   Overcast
3:16 PM 32.0 °F 30.2 °F 93% 29.50 in 1.5 mi Calm Calm - N/A   Overcast
3:36 PM 33.8 °F 30.2 °F 87% 29.49 in 1.5 mi Calm Calm - N/A   Overcast
3:56 PM 33.8 °F 28.4 °F 81% 29.49 in 1.5 mi Calm Calm - N/A   Overcast
4:16 PM 33.8 °F 30.2 °F 87% 29.48 in 1.5 mi Calm Calm - 0.01 in   Overcast
4:36 PM 33.8 °F 28.4 °F 81% 29.47 in 1.5 mi Calm Calm - 0.01 in   Overcast
5:16 PM 32.0 °F 30.2 °F 93% 29.46 in 3.0 mi Calm Calm - N/A   Overcast
5:36 PM 32.0 °F 30.2 °F 93% 29.45 in 3.0 mi Calm Calm - N/A   Overcast
5:56 PM 33.8 °F 30.2 °F 87% 29.45 in 4.0 mi Calm Calm - N/A   Overcast
6:16 PM 33.8 °F 28.4 °F 81% 29.44 in 4.0 mi Calm Calm - N/A   Overcast
6:36 PM 32.0 °F 30.2 °F 93% 29.44 in 4.0 mi Calm Calm - N/A   Overcast
6:56 PM 32.0 °F 28.4 °F 87% 29.44 in 4.0 mi Calm Calm - 0.01 in   Overcast
7:16 PM 32.0 °F 30.2 °F 93% 29.43 in 4.0 mi Calm Calm - N/A   Overcast
7:36 PM 30.2 °F 28.4 °F 93% 29.42 in 4.0 mi Calm Calm - N/A   Overcast
7:56 PM 30.2 °F 28.4 °F 93% 29.41 in 6.0 mi Calm Calm - N/A   Overcast
8:16 PM 30.2 °F 30.2 °F 100% 29.41 in 6.0 mi Calm Calm - N/A   Overcast
8:56 PM 32.0 °F 30.2 °F 93% 29.41 in 4.0 mi Calm Calm - N/A   Overcast
9:16 PM 30.2 °F 28.4 °F 93% 29.42 in 4.0 mi Calm Calm - 0.01 in   Overcast
9:36 PM 32.0 °F 28.4 °F 87% 29.42 in 4.0 mi Calm Calm - 0.01 in   Overcast
9:56 PM 32.0 °F 30.2 °F 93% 29.42 in 4.0 mi Calm Calm - 0.02 in   Overcast
10:16 PM 32.0 °F 32.0 °F 100% 29.44 in 2.5 mi Calm Calm - N/A   Overcast
10:36 PM 32.0 °F 30.2 °F 93% 29.45 in 2.0 mi Calm Calm - 0.01 in   Overcast
11:16 PM 33.8 °F 30.2 °F 87% 29.47 in 2.5 mi Calm Calm - N/A   Overcast
11:36 PM 32.0 °F 30.2 °F 93% 29.49 in 9.0 mi Calm Calm - N/A   Overcast